Tracking 31027 objects as of 19-Jul-2025
HD Live streaming from Space Station
objects crossing your sky now

OBJECT N

Track OBJECT N now!
10-day predictions


NORAD ID: 54694
Int'l Code: 2022-167N
Perigee: 487.0 km
Apogee: 495.2 km
Inclination: 97.7 °
Period: 94.3 minutes
Semi major axis: 6862 km
RCS: Unknown
Launch date: December 9, 2022
Source: People's Republic of China (PRC)
Launch site: Yellow Sea Launch Area, China (YSLA)
Your satellite tracking list
NOAA 16 DEB
Track 1 satellite(s)




NASA's NSSDC Master Catalog

Two Line Element Set (TLE):
1 54694U 22167N   25199.92499728  .00009209  00000-0  34738-3 0  9990
2 54694  97.6514 353.2002 0005989 226.4006 133.6736 15.27263857144451
Source of the keplerian elements: AFSPC